LEMUR-2-DAVEWILSON (43126 NORAD) Tracking and Keplerian Element Data

This shows tracking and keplerian element data for the satellite.

Feedback or suggestion? Click here.




ElementValue
Catalog43126
NameLEMUR-2-DAVEWILSON
Epoch Orbit427
Epoch Day40.40653791
Epoch Year2018
RAAN102.6537
Inclination97.5517
Eccentricity0.0010364
Argument of Perigee176.2666
Mean Anonmoly183.8649
Mean Motion15.22228657
Decay Rate1.762E-05
L11 43126U 18004R 18040.40653791 .00001762 00000-0 79706-4 0 9996
L22 43126 97.5517 102.6537 0010364 176.2666 183.8649 15.22228657 4276

Live tracking and technical data element details for LEMUR-2-DAVEWILSON (NORAD 43126). LEMUR-2-DAVEWILSON can be tracked NOW for your location showing map with azimuth and elevation plus other details from your city location.

Track the satellite on the map from your city or location and see movement details for azimuth, elevation, latitude, longitude, range, height, and movement on the map or in text.







IsCatalogInMostPopularTable: catalog: 43126, numindb: 114
Update: records affected: 1



GetName: 43126 LEMUR-2-DAVEWILSON

Hit Count: updated at: Mon, 19 Nov 2018 11:37:58 GMT